Mackall AAF, NC

4:42 PM EST on November 22, 2019 (GMT -0500)
Mackall Army Air Field

Weather History for KHFF - October, 2019

Change the Weather History Date:

Sunday, October 13, 2019

  Actual Average Record
Temperature  
Mean Temperature 69 °F -  
Max Temperature 77 °F 71 °F 85 °F (2014)
Min Temperature 63 °F 50 °F 37 °F (2000)
Cooling Degree Days 4    
Growing Degree Days 19 (Base 50)    
Moisture  
Dew Point 66 °F    
Average Humidity 91    
Maximum Humidity 100    
Minimum Humidity 66    
Precipitation  
Precipitation 1.36 in - - ()
Sea Level Pressure  
Sea Level Pressure 30.06 in    
Wind  
Wind Speed 5 mph ()    
Max Wind Speed 14 mph    
Max Gust Speed 18 mph    
Visibility 8.4 miles    
Events Rain , Thunderstorm    
Averages and records for this station are not official NWS values.
T = Trace of Precipitation, MM = Missing Value Source: Averaged Metar Reports

Daily Weather History Graph

Daily Weather History Graph

Search for Another Location

Airport or City:

Astronomy

Oct. 13, 2019 Rise Set
Actual Time 7:22 AM EDT 6:45 PM EDT
Civil Twilight 6:56 AM EDT 7:11 PM EDT
Nautical Twilight 6:27 AM EDT 7:40 PM EDT
Astronomical Twilight 5:57 AM EDT 8:09 PM EDT
Moon 7:05 PM EDT (10/13) 6:57 AM EDT (10/13)
Length of Visible Light 12h 14m
Length of Day
11h 23m
Full, 100% of the Moon is Illuminated
Oct 13
Full
Oct 13
Full
Oct 21
Last Quarter
Oct 27
New
Nov 4
First Quarter

Hourly Weather History & Observations

Time (EDT) Temp. Dew Point Humidity Pressure Visibility Wind Dir Wind Speed Gust Speed Precip Events Conditions
12:56 AM 68.4 °F 57.9 °F 69% 30.01 in 10.0 mi SW 8.1 mph - N/A   Mostly Cloudy
1:56 AM 67.3 °F 57.7 °F 71% 30.01 in 10.0 mi SW 9.2 mph - N/A   Scattered Clouds
2:56 AM 64.9 °F 57.7 °F 77% 30.02 in 10.0 mi SW 5.8 mph - N/A   Mostly Cloudy
3:56 AM 63.0 °F 57.7 °F 83% 30.05 in 10.0 mi SSW 5.8 mph - N/A   Scattered Clouds
4:56 AM 63.7 °F 58.6 °F 84% 30.06 in 10.0 mi SW 5.8 mph - N/A   Mostly Cloudy
5:56 AM 65.7 °F 59.5 °F 81% 30.07 in 10.0 mi WSW 5.8 mph - N/A   Mostly Cloudy
6:19 AM 66.2 °F 60.8 °F 83% 30.07 in 10.0 mi SW 3.5 mph - N/A Rain Light Rain Showers
6:25 AM 66.2 °F 60.8 °F 83% 30.07 in 10.0 mi SW 4.6 mph - N/A   Mostly Cloudy
6:26 AM 66.2 °F 60.8 °F 83% 30.07 in 10.0 mi SW 5.8 mph - N/A Rain Light Rain
6:27 AM 66.2 °F 60.8 °F 83% 30.07 in 10.0 mi SW 5.8 mph - N/A   Mostly Cloudy
6:28 AM 66.2 °F 60.8 °F 83% 30.07 in 10.0 mi SW 5.8 mph - N/A Rain Light Rain
6:29 AM 66.2 °F 60.8 °F 83% 30.07 in 10.0 mi SW 5.8 mph - N/A   Mostly Cloudy
6:30 AM 64.4 °F 60.8 °F 88% 30.07 in 10.0 mi SSW 5.8 mph - N/A Rain Light Rain
6:31 AM 64.4 °F 60.8 °F 88% 30.07 in 10.0 mi SSW 5.8 mph - N/A   Mostly Cloudy
6:33 AM 64.4 °F 60.8 °F 88% 30.07 in 10.0 mi SSW 6.9 mph - N/A Rain Light Rain Showers
6:44 AM 64.4 °F 60.8 °F 88% 30.07 in 10.0 mi SSW 3.5 mph - N/A   Mostly Cloudy
6:56 AM 63.5 °F 60.4 °F 90% 30.07 in 10.0 mi SW 4.6 mph - N/A   Mostly Cloudy
7:56 AM 66.2 °F 61.7 °F 85% 30.08 in 10.0 mi SW 9.2 mph - N/A   Mostly Cloudy
8:56 AM 70.7 °F 63.5 °F 78% 30.09 in 10.0 mi SW 10.4 mph - N/A   Mostly Cloudy
9:56 AM 74.7 °F 64.9 °F 72% 30.10 in 10.0 mi WSW 11.5 mph - N/A   Scattered Clouds
10:28 AM 75.2 °F 64.4 °F 69% 30.12 in 10.0 mi West 13.8 mph - N/A   Mostly Cloudy
10:50 AM 71.6 °F 64.4 °F 78% 30.12 in 9.0 mi WNW 11.5 mph - N/A Rain Light Rain
10:56 AM 71.2 °F 64.8 °F 80% 30.12 in 10.0 mi WNW 5.8 mph - 0.01 in Rain Light Rain
11:11 AM 73.4 °F 66.2 °F 78% 30.13 in 10.0 mi WNW 6.9 mph - N/A   Mostly Cloudy
11:27 AM 71.6 °F 64.4 °F 78% 30.12 in 10.0 mi NNW 5.8 mph - N/A Rain Light Rain Showers
11:41 AM 71.6 °F 66.2 °F 83% 30.12 in 10.0 mi NW 5.8 mph - N/A   Mostly Cloudy
11:42 AM 71.6 °F 66.2 °F 83% 30.12 in 10.0 mi NW 5.8 mph - N/A Rain Light Rain Showers
11:43 AM 71.6 °F 66.2 °F 83% 30.12 in 10.0 mi NW 5.8 mph - N/A   Mostly Cloudy
11:44 AM 71.6 °F 66.2 °F 83% 30.12 in 10.0 mi NW 6.9 mph - N/A Rain Light Rain Showers
11:45 AM 71.6 °F 64.4 °F 78% 30.12 in 10.0 mi NNW 5.8 mph - N/A   Mostly Cloudy
11:46 AM 71.6 °F 66.2 °F 83% 30.12 in 10.0 mi NNW 4.6 mph - N/A Rain Light Rain Showers
11:47 AM 71.6 °F 66.2 °F 83% 30.12 in 10.0 mi NNW 5.8 mph - N/A   Overcast
11:48 AM 71.6 °F 66.2 °F 83% 30.12 in 10.0 mi NNW 4.6 mph - N/A Rain Light Rain Showers
11:49 AM 71.6 °F 66.2 °F 83% 30.12 in 10.0 mi North 4.6 mph - N/A   Overcast
11:50 AM 71.6 °F 66.2 °F 83% 30.12 in 10.0 mi North 5.8 mph - N/A Rain Light Rain Showers
11:56 AM 71.1 °F 66.2 °F 85% 30.11 in 10.0 mi North 6.9 mph - 0.01 in Rain Light Rain Showers
12:13 PM 73.4 °F 64.4 °F 73% 30.11 in 10.0 mi Calm Calm - N/A   Mostly Cloudy
12:56 PM 74.1 °F 63.5 °F 69% 30.10 in 10.0 mi NNW 4.6 mph - N/A   Mostly Cloudy
1:50 PM 75.2 °F 64.4 °F 69% 30.08 in 10.0 mi SW 5.8 mph - N/A   Mostly Cloudy
1:56 PM 75.7 °F 63.7 °F 66% 30.08 in 10.0 mi SW 4.6 mph - N/A   Mostly Cloudy
2:12 PM 75.2 °F 64.4 °F 69% 30.07 in 10.0 mi WSW 4.6 mph - N/A Rain Light Rain
2:46 PM 73.4 °F 64.4 °F 73% 30.06 in 10.0 mi Calm Calm - N/A   Mostly Cloudy
2:56 PM 73.2 °F 63.7 °F 72% 30.05 in 10.0 mi Calm Calm - 0.01 in   Mostly Cloudy
3:52 PM 73.4 °F 66.2 °F 78% 30.03 in 10.0 mi SSE 3.5 mph - N/A   Mostly Cloudy
3:56 PM 74.5 °F 65.8 °F 74% 30.03 in 10.0 mi SE 4.6 mph - N/A   Mostly Cloudy
4:56 PM 75.0 °F 66.9 °F 76% 30.02 in 10.0 mi SSE 6.9 mph - N/A   Mostly Cloudy
5:56 PM 74.1 °F 66.9 °F 78% 30.01 in 10.0 mi SE 5.8 mph - N/A   Overcast
6:04 PM 73.4 °F 68.0 °F 83% 30.00 in 10.0 mi SE 5.8 mph - N/A Rain Light Rain Showers
6:22 PM 73.4 °F 68.0 °F 83% 30.01 in 4.0 mi Calm Calm - N/A   Haze
6:23 PM 73.4 °F 68.0 °F 83% 30.01 in 4.0 mi Calm Calm - N/A Rain Rain
6:25 PM 71.6 °F 68.0 °F 88% 30.01 in 3.0 mi Calm Calm - N/A Thunderstorm Overcast
6:27 PM 71.6 °F 68.0 °F 88% 30.01 in 3.0 mi NNW 4.6 mph - N/A Rain , Thunderstorm Rain
6:29 PM 71.6 °F 69.8 °F 94% 30.01 in 4.0 mi NW 5.8 mph - N/A Thunderstorm Overcast
6:30 PM 71.6 °F 69.8 °F 94% 30.01 in 4.0 mi NW 5.8 mph - N/A Rain , Thunderstorm Heavy Rain
6:31 PM 71.6 °F 69.8 °F 94% 30.01 in 4.0 mi NW 4.6 mph - N/A Thunderstorm Overcast
6:32 PM 71.6 °F 69.8 °F 94% 30.01 in 5.0 mi NW 3.5 mph - N/A Rain , Thunderstorm Heavy Rain
6:34 PM 71.6 °F 69.8 °F 94% 30.01 in 7.0 mi Calm Calm - N/A Thunderstorm Overcast
6:36 PM 69.8 °F 69.8 °F 100% 30.01 in 7.0 mi NW 5.8 mph - N/A Rain , Thunderstorm Heavy Rain
6:39 PM 69.8 °F 69.8 °F 100% 30.03 in 6.0 mi NW 10.4 mph - N/A Rain , Thunderstorm Heavy Rain
6:41 PM 69.8 °F 69.8 °F 100% 30.04 in 5.0 mi WNW 11.5 mph - N/A Rain Heavy Rain
6:44 PM 69.8 °F 68.0 °F 94% 30.03 in 2.8 mi West 4.6 mph - N/A Rain Heavy Rain
6:48 PM 69.8 °F 68.0 °F 94% 30.04 in 1.9 mi West 10.4 mph - N/A Rain Heavy Rain Showers
6:49 PM 69.8 °F 68.0 °F 94% 30.04 in 2.8 mi West 11.5 mph - N/A Rain Heavy Rain Showers
6:56 PM 69.8 °F 68.7 °F 96% 30.05 in 3.0 mi West 11.5 mph 18.4 mph 0.52 in Rain Heavy Rain Showers
6:57 PM 69.8 °F 68.0 °F 94% 30.04 in 2.8 mi West 11.5 mph 18.4 mph N/A Rain Heavy Rain Showers
7:03 PM 69.8 °F 68.0 °F 94% 30.04 in 3.0 mi WNW 6.9 mph 18.4 mph N/A Rain Heavy Rain Showers
7:17 PM 69.8 °F 68.0 °F 94% 30.04 in 10.0 mi WSW 3.5 mph - N/A   Overcast
7:21 PM 69.8 °F 68.0 °F 94% 30.03 in 10.0 mi Calm Calm - N/A   Overcast
7:26 PM 69.8 °F 68.0 °F 94% 30.03 in 10.0 mi Calm Calm - N/A Rain Light Rain Showers
7:29 PM 69.8 °F 68.0 °F 94% 30.03 in 10.0 mi SSE 3.5 mph - N/A Thunderstorm Overcast
7:30 PM 69.8 °F 68.0 °F 94% 30.03 in 10.0 mi South 3.5 mph - N/A Rain , Thunderstorm Light Rain Showers
7:31 PM 69.8 °F 68.0 °F 94% 30.03 in 10.0 mi Calm Calm - N/A Rain , Thunderstorm Light Rain Showers
7:34 PM 69.8 °F 68.0 °F 94% 30.03 in 7.0 mi Calm Calm - N/A Thunderstorm Overcast
7:35 PM 69.8 °F 68.0 °F 94% 30.03 in 7.0 mi Calm Calm - N/A Rain , Thunderstorm Light Rain Showers
7:36 PM 69.8 °F 68.0 °F 94% 30.03 in 7.0 mi Calm Calm - N/A Thunderstorm Mostly Cloudy
7:37 PM 69.8 °F 68.0 °F 94% 30.03 in 8.0 mi Calm Calm - N/A Rain , Thunderstorm Light Rain Showers
7:38 PM 69.8 °F 68.0 °F 94% 30.03 in 8.0 mi Calm Calm - N/A Thunderstorm Thunderstorm
7:39 PM 69.8 °F 69.8 °F 100% 30.03 in 8.0 mi NNE 3.5 mph - N/A Rain , Thunderstorm Light Thunderstorms and Rain
7:40 PM 69.8 °F 69.8 °F 100% 30.03 in 8.0 mi NNE 5.8 mph - N/A Thunderstorm Thunderstorm
7:41 PM 69.8 °F 69.8 °F 100% 30.03 in 8.0 mi North 5.8 mph - N/A Rain , Thunderstorm Light Thunderstorms and Rain
7:42 PM 69.8 °F 68.0 °F 94% 30.03 in 8.0 mi North 5.8 mph - N/A Thunderstorm Thunderstorm
7:43 PM 69.8 °F 68.0 °F 94% 30.03 in 8.0 mi North 5.8 mph - N/A Rain , Thunderstorm Light Thunderstorms and Rain
7:44 PM 69.8 °F 68.0 °F 94% 30.04 in 10.0 mi North 4.6 mph - N/A Thunderstorm Thunderstorm
7:45 PM 69.8 °F 68.0 °F 94% 30.04 in 10.0 mi North 3.5 mph - N/A Rain , Thunderstorm Light Thunderstorms and Rain
7:46 PM 69.8 °F 68.0 °F 94% 30.04 in 10.0 mi North 3.5 mph - N/A Thunderstorm Thunderstorm
7:47 PM 69.8 °F 68.0 °F 94% 30.04 in 10.0 mi NNW 3.5 mph - N/A Rain , Thunderstorm Light Thunderstorms and Rain
7:49 PM 69.8 °F 68.0 °F 94% 30.06 in 10.0 mi WNW 5.8 mph - N/A Rain , Thunderstorm Light Thunderstorms and Rain
7:51 PM 69.8 °F 68.0 °F 94% 30.07 in 6.0 mi WNW 8.1 mph - N/A Rain , Thunderstorm Heavy Thunderstorms and Rain
7:52 PM 69.8 °F 68.0 °F 94% 30.07 in 3.0 mi West 8.1 mph - N/A Thunderstorm Thunderstorm
7:53 PM 69.8 °F 68.0 °F 94% 30.07 in 3.0 mi West 8.1 mph - N/A Rain , Thunderstorm Heavy Thunderstorms and Rain
7:54 PM 69.8 °F 68.0 °F 94% 30.07 in 2.8 mi WNW 6.9 mph - N/A Rain , Thunderstorm Heavy Thunderstorms and Rain
7:56 PM 69.1 °F 68.7 °F 99% 30.07 in 2.2 mi West 4.6 mph - 0.51 in Rain , Thunderstorm Heavy Thunderstorms and Rain
7:58 PM 69.8 °F 68.0 °F 94% 30.06 in 1.9 mi WSW 4.6 mph - N/A Rain , Thunderstorm Heavy Thunderstorms and Rain
7:59 PM 69.8 °F 68.0 °F 94% 30.04 in 1.9 mi SW 6.9 mph - N/A Rain , Thunderstorm Heavy Thunderstorms and Rain
8:02 PM 69.8 °F 68.0 °F 94% 30.05 in 2.0 mi West 9.2 mph - N/A Rain , Thunderstorm Heavy Thunderstorms and Rain
8:03 PM 68.0 °F 68.0 °F 100% 30.05 in 2.2 mi WSW 10.4 mph - N/A Thunderstorm Thunderstorm
8:04 PM 68.0 °F 68.0 °F 100% 30.05 in 2.5 mi SW 6.9 mph - N/A Rain , Thunderstorm Heavy Thunderstorms and Rain
8:05 PM 68.0 °F 68.0 °F 100% 30.05 in 3.0 mi WSW 4.6 mph - N/A Rain , Thunderstorm Heavy Thunderstorms and Rain
8:11 PM 68.0 °F 66.2 °F 94% 30.05 in 9.0 mi West 3.5 mph - N/A Rain , Thunderstorm Heavy Thunderstorms and Rain
8:14 PM 68.0 °F 66.2 °F 94% 30.05 in 9.0 mi Calm Calm - N/A Thunderstorm Thunderstorm
8:15 PM 68.0 °F 66.2 °F 94% 30.05 in 9.0 mi Calm Calm - N/A Rain , Thunderstorm Heavy Thunderstorms and Rain
8:16 PM 68.0 °F 66.2 °F 94% 30.05 in 9.0 mi Calm Calm - N/A Thunderstorm Thunderstorm
8:17 PM 68.0 °F 66.2 °F 94% 30.05 in 9.0 mi Calm Calm - N/A Rain , Thunderstorm Heavy Thunderstorms and Rain
8:19 PM 68.0 °F 68.0 °F 100% 30.05 in 10.0 mi Calm Calm - N/A Thunderstorm Thunderstorm
8:20 PM 68.0 °F 68.0 °F 100% 30.05 in 10.0 mi Calm Calm - N/A Rain , Thunderstorm Thunderstorms and Rain
8:21 PM 68.0 °F 68.0 °F 100% 30.05 in 10.0 mi Calm Calm - N/A Rain , Thunderstorm Thunderstorms and Rain
8:22 PM 68.0 °F 66.2 °F 94% 30.04 in 10.0 mi Calm Calm - N/A Thunderstorm Thunderstorm
8:23 PM 68.0 °F 66.2 °F 94% 30.04 in 9.0 mi Calm Calm - N/A Rain , Thunderstorm Thunderstorms and Rain
8:25 PM 68.0 °F 68.0 °F 100% 30.04 in 8.0 mi Calm Calm - N/A Thunderstorm Thunderstorm
8:27 PM 68.0 °F 68.0 °F 100% 30.04 in 7.0 mi Calm Calm - N/A Rain , Thunderstorm Thunderstorms and Rain
8:33 PM 68.0 °F 68.0 °F 100% 30.05 in 7.0 mi South 6.9 mph - N/A Thunderstorm Thunderstorm
8:35 PM 68.0 °F 68.0 °F 100% 30.05 in 7.0 mi South 8.1 mph - N/A Rain , Thunderstorm Thunderstorms and Rain
8:36 PM 68.0 °F 68.0 °F 100% 30.05 in 8.0 mi South 8.1 mph - N/A Thunderstorm Thunderstorm
8:37 PM 68.0 °F 68.0 °F 100% 30.05 in 8.0 mi SSW 8.1 mph - N/A Rain , Thunderstorm Thunderstorms and Rain
8:38 PM 68.0 °F 68.0 °F 100% 30.05 in 9.0 mi South 8.1 mph - N/A   Overcast
8:39 PM 68.0 °F 68.0 °F 100% 30.05 in 9.0 mi South 8.1 mph - N/A Rain Rain Showers
8:40 PM 68.0 °F 68.0 °F 100% 30.05 in 9.0 mi South 8.1 mph - N/A   Overcast
8:41 PM 68.0 °F 68.0 °F 100% 30.05 in 9.0 mi South 8.1 mph - N/A Rain Rain Showers
8:42 PM 68.0 °F 68.0 °F 100% 30.05 in 9.0 mi South 8.1 mph - N/A   Overcast
8:43 PM 68.0 °F 68.0 °F 100% 30.04 in 9.0 mi South 6.9 mph - N/A Rain Rain Showers
8:46 PM 68.0 °F 68.0 °F 100% 30.04 in 9.0 mi South 6.9 mph - N/A Rain Rain
8:51 PM 68.0 °F 68.0 °F 100% 30.04 in 10.0 mi South 5.8 mph - N/A   Mostly Cloudy
8:52 PM 68.0 °F 68.0 °F 100% 30.04 in 10.0 mi South 5.8 mph - N/A Rain Rain
8:55 PM 68.0 °F 68.0 °F 100% 30.04 in 10.0 mi SSW 5.8 mph - N/A Rain Rain
8:56 PM 68.4 °F 67.6 °F 98% 30.04 in 10.0 mi SSW 5.8 mph - 0.28 in Rain Rain
9:02 PM 68.0 °F 68.0 °F 100% 30.04 in 10.0 mi WSW 6.9 mph - N/A   Mostly Cloudy
9:35 PM 68.0 °F 66.2 °F 94% 30.06 in 10.0 mi West 5.8 mph - N/A   Mostly Cloudy
9:56 PM 67.5 °F 65.8 °F 95% 30.06 in 10.0 mi WNW 5.8 mph - 0.01 in   Mostly Cloudy
10:22 PM 68.0 °F 66.2 °F 94% 30.05 in 10.0 mi WSW 5.8 mph - N/A Rain Light Rain
10:47 PM 68.0 °F 66.2 °F 94% 30.07 in 10.0 mi NW 4.6 mph - N/A Rain Light Rain Showers
10:48 PM 68.0 °F 66.2 °F 94% 30.07 in 10.0 mi NW 3.5 mph - N/A   Mostly Cloudy
10:56 PM 67.1 °F 66.0 °F 96% 30.07 in 10.0 mi Calm Calm - N/A   Mostly Cloudy
11:12 PM 66.2 °F 66.2 °F 100% 30.05 in 10.0 mi South 4.6 mph - N/A   Mostly Cloudy
11:18 PM 66.2 °F 66.2 °F 100% 30.07 in 10.0 mi SSW 4.6 mph - N/A   Mostly Cloudy
11:34 PM 66.2 °F 66.2 °F 100% 30.07 in 10.0 mi SW 4.6 mph - N/A Rain Light Rain
11:38 PM 66.2 °F 66.2 °F 100% 30.07 in 10.0 mi SW 4.6 mph - N/A   Overcast
11:40 PM 66.2 °F 66.2 °F 100% 30.07 in 10.0 mi SW 4.6 mph - N/A Rain Light Rain
11:41 PM 66.2 °F 66.2 °F 100% 30.07 in 10.0 mi SW 4.6 mph - N/A   Overcast
11:42 PM 66.2 °F 66.2 °F 100% 30.07 in 10.0 mi SW 4.6 mph - N/A Rain Light Rain
11:43 PM 66.2 °F 66.2 °F 100% 30.07 in 10.0 mi SW 4.6 mph - N/A   Overcast
11:45 PM 66.2 °F 66.2 °F 100% 30.07 in 10.0 mi SW 4.6 mph - N/A Rain Light Rain
11:46 PM 66.2 °F 66.2 °F 100% 30.07 in 10.0 mi SW 4.6 mph - N/A   Overcast
11:48 PM 66.2 °F 66.2 °F 100% 30.07 in 10.0 mi SW 5.8 mph - N/A Rain Light Rain
11:49 PM 66.2 °F 66.2 °F 100% 30.07 in 10.0 mi SW 5.8 mph - N/A   Overcast
11:50 PM 66.2 °F 66.2 °F 100% 30.07 in 10.0 mi SW 5.8 mph - N/A Rain Light Rain
11:52 PM 66.2 °F 66.2 °F 100% 30.07 in 10.0 mi SW 5.8 mph - N/A   Overcast
11:53 PM 66.2 °F 66.2 °F 100% 30.07 in 10.0 mi SW 5.8 mph - N/A Rain Light Rain
11:56 PM 66.7 °F 66.2 °F 98% 30.07 in 10.0 mi SSW 6.9 mph - 0.01 in Rain Light Rain